{"data":{"norad_id":55049,"intl_designator":"2023-001AS","name":"ICEYE-X21","alt_names":[],"object_type":"PAYLOAD","status":"ACTIVE","operator":null,"country":"FIN","launch_date":"2023-01-03","launch_site_code":"AFETR","launch_vehicle":null,"mission":null,"orbit_class":"UNKNOWN","rcs_meters":null,"size_class":null,"mass_kg":null,"dimensions":null,"purposes":[],"wikipedia_slug":null,"has_3d_model":false,"image_url":null,"decayed_at":null,"tle_current":{"epoch":"2026-06-24T05:11:18.420288Z","epoch_age_seconds":7792640,"freshness":"OLD","line1":"1 55049U 23001AS  26175.21618542  .01585954  23968-5  60214-3 0  9995","line2":"2 55049  97.3001 262.6152 0012377 285.9702  74.0225 16.24069885194757","mean_motion":16.24069885,"eccentricity":0.0012377,"inclination_deg":97.3001,"raan_deg":262.6152,"arg_perigee_deg":285.9702,"mean_anomaly_deg":74.0225,"bstar":0.00060214,"rev_number":19475,"period_min":88.666135201442,"perigee_km":200.37250561371,"apogee_km":216.67712827538,"semimajor_km":6586.6618169445,"source":"CELESTRAK","updated_at":"2026-07-24T09:00:33.137930Z"}}}